Latest Weather Observations for Mandora

IDW60801

Issued at 9:35 am WST Tuesday 2 September 2014 (issued every 30 minutes, with the page automatically refreshed every 10 minutes)

About weather observations | Map of weather stations | Latest weather observations for WA | Other Formats
Station Details ID: 004019 Name: MANDORA Lat: -19.74 Lon: 120.84 Height: 7.5 m
Data from the previous 72 hours. | See also: Recent months at Mandora
Date/Time
WST
Temp
°C
App
Temp
°C
Dew
Point
Rel
Hum
%
Delta-T
°C
Wind Press
QNH
hPa
Press
MSL
hPa
Rain
since 9 am
mm
Dir
 
Spd
km/h
Gust
km/h
Spd
kts
Gust
kts
02/09:30am 31.8 - - - - E 11 20 6 11 1016.6 - 0.0
02/09:00am 29.9 - - - - E 11 19 6 10 1016.5 1016.5 0.0
02/08:30am 26.8 - - - - E 11 17 6 9 1016.5 - 0.0
02/08:00am 24.2 - - - - ESE 15 20 8 11 1016.4 - 0.0
02/07:30am 20.9 - - - - SE 9 15 5 8 1016.1 - 0.0
02/07:00am 17.6 - - - - SE 9 13 5 7 1015.9 - 0.0
02/06:53am 16.4 - - - - SE 9 13 5 7 1015.9 - 0.0
02/06:30am 11.3 - - - - SE 11 13 6 7 1015.6 - 0.0
02/06:00am 8.6 - - - - SE 9 11 5 6 1015.4 1015.4 0.0
02/05:30am 8.5 - - - - SSE 7 9 4 5 1015.0 - 0.0
02/05:00am 9.1 - - - - S 7 11 4 6 1014.9 - 0.0
02/04:30am 9.7 - - - - SE 7 9 4 5 1014.6 - 0.0
02/04:00am 11.9 - - - - SE 9 11 5 6 1014.2 - 0.0
02/03:30am 12.3 - - - - ESE 7 9 4 5 1014.2 - 0.0
02/03:00am 15.9 - - - - SSE 11 15 6 8 1014.1 1014.1 0.0
02/02:30am 16.7 - - - - S 11 15 6 8 1014.1 - 0.0
02/02:00am 16.7 - - - - S 13 15 7 8 1014.2 - 0.0
02/01:30am 15.4 - - - - S 13 15 7 8 1014.4 - 0.0
02/01:00am 11.1 - - - - S 9 11 5 6 1014.6 - 0.0
02/12:30am 11.9 - - - - SW 6 9 3 5 1014.9 - 0.0
02/12:00am 13.4 - - - - SSW 6 7 3 4 1015.0 1015.0 0.0
 
Date/Time
WST
Temp
°C
App
Temp
°C
Dew
Point
Rel
Hum
%
Delta-T
°C
Wind Press
QNH
hPa
Press
MSL
hPa
Rain
since 9 am
mm
Dir
 
Spd
km/h
Gust
km/h
Spd
kts
Gust
kts
01/11:30pm 16.8 - - - - S 9 13 5 7 1015.2 - 0.0
01/11:00pm 18.3 - - - - S 13 15 7 8 1015.1 - 0.0
01/10:30pm 18.6 - - - - S 13 19 7 10 1015.2 - 0.0
01/10:00pm 17.7 - - - - S 11 15 6 8 1015.1 - 0.0
01/09:30pm 19.1 - - - - S 11 15 6 8 1015.1 - 0.0
01/09:00pm 17.7 - - - - S 11 11 6 6 1015.0 1015.0 0.0
01/08:30pm 19.6 - - - - S 13 15 7 8 1014.8 - 0.0
01/08:00pm 20.3 - - - - SSW 11 11 6 6 1014.4 - 0.0
01/07:30pm 20.8 - - - - SW 11 15 6 8 1014.1 - 0.0
01/07:00pm 21.5 - - - - WSW 9 11 5 6 1013.6 - 0.0
01/06:30pm 21.6 - - - - WSW 11 13 6 7 1013.4 - 0.0
01/06:00pm 24.1 - - - - W 7 9 4 5 1013.2 1013.2 0.0
01/05:30pm 27.3 - - - - WNW 9 11 5 6 1013.1 - 0.0
01/05:00pm 29.9 - - - - WNW 11 15 6 8 1013.0 - 0.0
01/04:30pm 31.1 - - - - WNW 13 19 7 10 1012.8 - 0.0
01/04:00pm 31.8 - - - - WNW 13 19 7 10 1012.7 - 0.0
01/03:30pm 32.2 - - - - WNW 15 19 8 10 1012.7 - 0.0
01/03:00pm 32.4 - - - - WNW 15 24 8 13 1012.9 1012.9 0.0
01/02:30pm 32.7 - - - - WNW 17 24 9 13 1013.0 - 0.0
01/02:00pm 32.7 - - - - NW 17 24 9 13 1013.1 - 0.0
01/01:30pm 32.7 - - - - NW 17 22 9 12 1013.3 - 0.0
01/01:00pm 32.9 - - - - NW 15 20 8 11 1013.7 - 0.0
01/12:30pm 32.3 - - - - NNW 15 22 8 12 1014.2 - 0.0
01/12:00pm 32.2 - - - - NNW 15 20 8 11 1014.6 1014.6 0.0
01/11:30am 31.9 - - - - NNW 15 22 8 12 1014.9 - 0.0
01/11:00am 32.5 - - - - NNW 19 24 10 13 1015.0 - 0.0
01/10:30am 33.6 - - - - E 9 20 5 11 1015.5 - 0.0
01/10:00am 32.9 - - - - ESE 9 15 5 8 1015.7 - 0.0
01/09:30am 30.0 - - - - E 6 11 3 6 1016.0 - 0.0
01/09:00am 27.1 - - - - SSE 9 13 5 7 1015.9 1015.9 0.0
01/08:30am 24.4 - - - - ESE 6 9 3 5 1015.9 - 0.0
01/08:00am 21.6 - - - - E 7 11 4 6 1015.7 - 0.0
01/07:30am 17.4 - - - - ENE 6 9 3 5 1015.5 - 0.0
01/07:00am 12.6 - - - - ESE 7 11 4 6 1015.0 - 0.0
01/06:30am 9.8 - - - - E 11 13 6 7 1014.6 - 0.0
01/06:00am 9.3 - - - - E 11 13 6 7 1014.4 1014.4 0.0
01/05:30am 8.2 - - - - S 9 11 5 6 1014.1 - 0.0
01/05:00am 7.9 - - - - SE 7 9 4 5 1013.8 - 0.0
01/04:30am 9.1 - - - - SE 9 11 5 6 1013.6 - 0.0
01/04:00am 9.5 - - - - ESE 6 7 3 4 1013.4 - 0.0
01/03:30am 10.7 - - - - ESE 6 7 3 4 1013.4 - 0.0
01/03:00am 13.4 - - - - SE 7 9 4 5 1013.4 1013.4 0.0
01/02:30am 13.8 - - - - S 11 15 6 8 1013.3 - 0.0
01/02:00am 13.5 - - - - S 11 15 6 8 1013.4 - 0.0
01/01:30am 13.3 - - - - SSW 2 7 1 4 1013.6 - 0.0
01/01:00am 15.6 - - - - SSW 13 15 7 8 1013.6 - 0.0
01/12:30am 16.3 - - - - SSW 13 15 7 8 1013.8 - 0.0
01/12:00am 16.0 - - - - SSW 13 13 7 7 1013.9 1013.9 0.0
 
Date/Time
WST
Temp
°C
App
Temp
°C
Dew
Point
Rel
Hum
%
Delta-T
°C
Wind Press
QNH
hPa
Press
MSL
hPa
Rain
since 9 am
mm
Dir
 
Spd
km/h
Gust
km/h
Spd
kts
Gust
kts
31/11:30pm 16.2 - - - - S 13 15 7 8 1014.0 - 0.0
31/11:00pm 16.8 - - - - SSW 13 15 7 8 1013.9 - 0.0
31/10:30pm 16.9 - - - - S 13 15 7 8 1013.8 - 0.0
31/10:00pm 17.0 - - - - S 13 15 7 8 1013.8 - 0.0
31/09:30pm 16.7 - - - - SSW 11 13 6 7 1013.9 - 0.0
31/09:00pm 17.3 - - - - SSW 11 13 6 7 1013.7 1013.7 0.0
31/08:30pm 17.9 - - - - SSW 11 13 6 7 1013.6 - 0.0
31/08:00pm 18.8 - - - - WSW 11 11 6 6 1013.5 - 0.0
31/07:30pm 18.9 - - - - W 11 13 6 7 1013.3 - 0.0
31/07:00pm 19.3 - - - - W 9 11 5 6 1013.1 - 0.0
31/06:30pm 21.3 - - - - W 11 13 6 7 1012.8 - 0.0
31/06:00pm 22.9 - - - - W 9 11 5 6 1012.4 1012.4 0.0
31/05:30pm 27.0 - - - - WNW 9 13 5 7 1012.3 - 0.0
31/05:00pm 29.0 - - - - WNW 13 17 7 9 1012.3 - 0.0
31/04:30pm 30.1 - - - - WNW 15 20 8 11 1012.1 - 0.0
31/04:00pm 31.1 - - - - NW 17 22 9 12 1012.2 - 0.0
31/03:30pm 31.5 - - - - NW 17 24 9 13 1012.2 - 0.0
31/03:00pm 31.8 - - - - NW 20 26 11 14 1012.2 1012.2 0.0
31/02:30pm 32.4 - - - - NW 19 24 10 13 1012.2 - 0.0
31/02:00pm 32.5 - - - - NNW 20 28 11 15 1012.4 - 0.0
31/01:30pm 32.9 - - - - N 20 28 11 15 1012.7 - 0.0
31/01:00pm 33.9 - - - - N 19 28 10 15 1013.1 - 0.0
31/12:30pm 32.9 - - - - N 19 26 10 14 1013.5 - 0.0
31/12:00pm 32.6 - - - - NNW 17 26 9 14 1013.9 1013.9 0.0
31/11:30am 33.8 - - - - ENE 9 20 5 11 1014.6 - 0.0
31/11:00am 32.9 - - - - E 11 20 6 11 1015.0 - 0.0
31/10:30am 33.1 - - - - E 13 24 7 13 1015.6 - 0.0
31/10:00am 31.5 - - - - E 13 20 7 11 1015.8 - 0.0
31/09:30am 30.1 - - - - E 13 20 7 11 1016.0 - 0.0
31/09:00am 27.4 - - - - E 9 15 5 8 1016.2 1016.2 0.0
31/08:30am 25.1 - - - - ESE 9 15 5 8 1016.1 - 0.0
31/08:00am 21.0 - - - - E 7 15 4 8 1015.9 - 0.0
31/07:30am 17.6 - - - - E 7 11 4 6 1015.7 - 0.0
31/07:00am 13.5 - - - - ENE 7 11 4 6 1015.4 - 0.0
31/06:30am 12.0 - - - - ESE 9 13 5 7 1014.9 - 0.0
31/06:00am 13.6 - - - - SSE 9 13 5 7 1014.4 1014.4 0.0
31/05:30am 13.5 - - - - SSE 9 13 5 7 1014.1 - 0.0
31/05:00am 13.4 - - - - SSE 7 11 4 6 1014.0 - 0.0
31/04:30am 13.8 - - - - SSE 7 9 4 5 1013.8 - 0.0
31/04:00am 12.7 - - - - S 7 11 4 6 1013.9 - 0.0
31/03:30am 14.6 - - - - SSE 4 7 2 4 1013.8 - 0.0
31/03:00am 15.2 - - - - S 13 17 7 9 1013.8 1013.8 0.0
31/02:30am 15.9 - - - - S 13 17 7 9 1013.8 - 0.0
31/02:00am 15.6 - - - - S 15 17 8 9 1014.0 - 0.0
31/01:30am 16.5 - - - - S 11 13 6 7 1014.2 - 0.0
31/01:00am 16.9 - - - - S 11 15 6 8 1014.4 - 0.0
31/12:30am 16.9 - - - - S 11 15 6 8 1014.5 - 0.0
31/12:00am 17.3 - - - - S 13 15 7 8 1014.7 1014.7 0.0
 
Date/Time
WST
Temp
°C
App
Temp
°C
Dew
Point
Rel
Hum
%
Delta-T
°C
Wind Press
QNH
hPa
Press
MSL
hPa
Rain
since 9 am
mm
Dir
 
Spd
km/h
Gust
km/h
Spd
kts
Gust
kts
30/11:30pm 16.4 - - - - S 13 15 7 8 1014.8 - 0.0
30/11:00pm 16.6 - - - - S 15 15 8 8 1015.0 - 0.0
30/10:30pm 16.5 - - - - S 13 15 7 8 1015.2 - 0.0
30/10:00pm 15.1 - - - - SSW 13 13 7 7 1015.5 - 0.0
30/09:30pm 14.3 - - - - SSW 11 13 6 7 1015.5 - 0.0
30/09:00pm 15.8 - - - - SSW 7 11 4 6 1015.6 1015.6 0.0
30/08:30pm 18.1 - - - - SW 13 13 7 7 1015.3 - 0.0
30/08:00pm 18.4 - - - - SW 15 15 8 8 1015.1 - 0.0
30/07:30pm 18.7 - - - - SW 15 17 8 9 1014.9 - 0.0
30/07:00pm 19.1 - - - - WSW 11 13 6 7 1014.7 - 0.0
30/06:30pm 20.3 - - - - WSW 7 9 4 5 1014.5 - 0.0
30/06:00pm 22.7 - - - - WNW 11 13 6 7 1014.2 1014.2 0.0
30/05:30pm 26.5 - - - - WNW 9 13 5 7 1013.9 - 0.0
30/05:00pm 28.6 - - - - WNW 13 19 7 10 1013.8 - 0.0
30/04:30pm 29.9 - - - - WNW 15 20 8 11 1013.6 - 0.0
30/04:00pm 31.0 - - - - WNW 15 20 8 11 1013.3 - 0.0
30/03:30pm 31.5 - - - - NNW 17 24 9 13 1013.2 - 0.0
30/03:00pm 32.3 - - - - NNW 17 24 9 13 1013.2 1013.2 0.0
30/02:30pm 32.3 - - - - N 19 24 10 13 1013.3 - 0.0
30/02:00pm 32.0 - - - - N 20 26 11 14 1013.5 - 0.0
30/01:30pm 32.4 - - - - N 22 32 12 17 1013.8 - 0.0
30/01:00pm 32.8 - - - - N 24 35 13 19 1014.2 - 0.0
30/12:30pm 33.3 - - - - NNE 20 30 11 16 1014.7 - 0.0
30/12:00pm 33.0 - - - - NNE 19 28 10 15 1015.1 1015.1 0.0
30/11:30am 33.2 - - - - E 19 28 10 15 1015.6 - 0.0
30/11:00am 32.4 - - - - ENE 20 35 11 19 1016.2 - 0.0
30/10:30am 31.6 - - - - ENE 19 30 10 16 1016.6 - 0.0
30/10:00am 31.0 - - - - E 17 28 9 15 1017.0 - 0.0

Other Formats:

Comma delimited format used in spreadsheet applications
http://www.bom.gov.au/fwo/IDW60801/IDW60801.94200.axf

JavaScript Object Notation format (JSON) in row-major order
http://www.bom.gov.au/fwo/IDW60801/IDW60801.94200.json